,,PA_Meas_PMT16A,,PR_Meas_QMR101_102,,RH_Meas_QMH101,,SR_Meas_QMS101,,TA_Meas_QMH101,,GenWind,,GenWind,
time,status,PA,status,PR,status,RH,status,SR,status,TA,status,DirAvg,status,SpdAvg,
2015-03-08, 07:51:04,VALID,921.081,VALID,0,VALID,89.8648,VALID,59.3075,VALID,19.2543,VALID,21,VALID,0.61875,
2015-03-08, 07:52:04,VALID,921.115,VALID,0,VALID,90.124,VALID,64.1424,VALID,19.2948,VALID,354,VALID,0,
2015-03-08, 07:53:04,VALID,921.149,VALID,0,VALID,89.9868,VALID,67.9028,VALID,19.3143,VALID,353,VALID,0,
2015-03-08, 07:54:04,VALID,921.182,VALID,0,VALID,89.7276,VALID,74.6716,VALID,19.3338,VALID,349,VALID,0,
2015-03-08, 07:55:04,VALID,921.192,VALID,0,VALID,89.7733,VALID,81.333,VALID,19.3338,VALID,349,VALID,0,
2015-03-08, 07:56:04,VALID,921.229,VALID,0,VALID,90.4061,VALID,91.325,VALID,19.3728,VALID,349,VALID,0,
2015-03-08, 07:57:04,VALID,921.248,VALID,0,VALID,90.3222,VALID,100.135,VALID,19.3713,VALID,349,VALID,0,
2015-03-08, 07:58:04,VALID,921.274,VALID,0,VALID,89.9258,VALID,100.78,VALID,19.4118,VALID,349,VALID,0,
2015-03-08, 07:59:04,VALID,921.29,VALID,0,VALID,89.5751,VALID,97.2342,VALID,19.4103,VALID,349,VALID,0,
2015-03-08, 08:00:04,VALID,921.318,VALID,0,VALID,90.5662,VALID,94.4408,VALID,19.5483,VALID,349,VALID,0,
2015-03-08, 08:01:04,VALID,921.349,VALID,0,VALID,90.8711,VALID,88.1017,VALID,19.5663,VALID,278,VALID,0,
2015-03-08, 08:02:04,VALID,921.374,VALID,0,VALID,90.6272,VALID,79.9362,VALID,19.6053,VALID,271,VALID,0,
2015-03-08, 08:03:04,VALID,921.44,VALID,0,VALID,89.7352,VALID,67.5805,VALID,19.6248,VALID,222,VALID,0.235156,
2015-03-08, 08:04:04,VALID,921.471,VALID,0,VALID,90.4061,VALID,48.5634,VALID,19.6443,VALID,208,VALID,0,
2015-03-08, 08:05:04,VALID,921.51,VALID,0,VALID,90.4899,VALID,36.2077,VALID,19.6638,VALID,221,VALID,0.331641,
2015-03-08, 08:06:04,VALID,921.541,VALID,0,VALID,90.1316,VALID,29.0091,VALID,19.6053,VALID,235,VALID,1.03789,
2015-03-08, 08:07:04,VALID,921.577,VALID,0,VALID,90.2384,VALID,26.4305,VALID,19.5678,VALID,220,VALID,0.737109,
2015-03-08, 08:08:04,VALID,921.538,VALID,0,VALID,91.3743,VALID,31.2654,VALID,19.5078,VALID,180,VALID,1.58164,
2015-03-08, 08:09:04,VALID,921.48,VALID,0.2,VALID,91.5344,VALID,40.2904,VALID,19.4298,VALID,149,VALID,1.07187,
2015-03-08, 08:10:04,VALID,921.434,VALID,0.4,VALID,92.7236,VALID,45.555,VALID,19.2753,VALID,133,VALID,1.67617,
2015-03-08, 08:11:04,VALID,921.391,VALID,0.6,VALID,93.6689,VALID,51.4643,VALID,19.0593,VALID,131,VALID,1.79688,
2015-03-08, 08:12:04,VALID,921.38,VALID,0.2,VALID,94.2483,VALID,54.4727,VALID,18.8839,VALID,136,VALID,1.54727,
2015-03-08, 08:13:04,VALID,921.401,VALID,0.2,VALID,95.1174,VALID,57.5885,VALID,18.8059,VALID,139,VALID,1.54727,
2015-03-08, 08:14:04,VALID,921.371,VALID,0.2,VALID,95.6129,VALID,60.9191,VALID,18.7488,VALID,136,VALID,1.79922,
2015-03-08, 08:15:04,VALID,921.36,VALID,0.2,VALID,95.9559,VALID,64.4647,VALID,18.6499,VALID,124,VALID,1.47305,
2015-03-08, 08:16:04,VALID,921.288,VALID,0.2,VALID,96.2685,VALID,68.2251,VALID,18.6109,VALID,111,VALID,1.325,
2015-03-08, 08:17:04,VALID,921.24,VALID,0.2,VALID,96.5124,VALID,71.6632,VALID,18.6109,VALID,94,VALID,1.76758,
2015-03-08, 08:18:04,VALID,921.209,VALID,0,VALID,96.6725,VALID,75.3162,VALID,18.572,VALID,104,VALID,2.08281,
2015-03-08, 08:19:04,VALID,921.166,VALID,0.2,VALID,96.8784,VALID,80.1511,VALID,18.572,VALID,105,VALID,1.79648,
2015-03-08, 08:20:04,VALID,921.121,VALID,0,VALID,96.9775,VALID,85.5232,VALID,18.5525,VALID,110,VALID,2.11289,
2015-03-08, 08:21:04,VALID,921.132,VALID,0.2,VALID,97.0613,VALID,91.2175,VALID,18.5539,VALID,113,VALID,2.18164,
2015-03-08, 08:22:04,VALID,921.114,VALID,0,VALID,97.1376,VALID,96.9119,VALID,18.5539,VALID,114,VALID,1.75469,
2015-03-08, 08:23:04,VALID,921.09,VALID,0,VALID,97.2214,VALID,100.78,VALID,18.533,VALID,116,VALID,1.41641,
2015-03-08, 08:24:04,VALID,921.088,VALID,0,VALID,97.3053,VALID,106.797,VALID,18.494,VALID,121,VALID,2.11055,
2015-03-08, 08:25:04,VALID,921.083,VALID,0,VALID,97.3586,VALID,112.276,VALID,18.494,VALID,108,VALID,2.36523,
2015-03-08, 08:26:04,VALID,921.122,VALID,0,VALID,97.4196,VALID,113.995,VALID,18.4745,VALID,107,VALID,1.1332,
2015-03-08, 08:27:04,VALID,921.138,VALID,0,VALID,97.5035,VALID,116.036,VALID,18.5344,VALID,104,VALID,1.31094,
2015-03-08, 08:28:04,VALID,921.133,VALID,0,VALID,97.5797,VALID,123.557,VALID,18.5344,VALID,142,VALID,0.6625,
2015-03-08, 08:29:04,VALID,921.15,VALID,0,VALID,97.6178,VALID,133.657,VALID,18.5149,VALID,130,VALID,1.54922,
2015-03-08, 08:30:04,VALID,921.134,VALID,0.2,VALID,97.656,VALID,138.921,VALID,18.455,VALID,131,VALID,0.946094,
2015-03-08, 08:31:04,VALID,921.115,VALID,0,VALID,97.656,VALID,146.55,VALID,18.455,VALID,147,VALID,1.55703,
2015-03-08, 08:32:04,VALID,921.098,VALID,0,VALID,97.7017,VALID,154.93,VALID,18.4745,VALID,134,VALID,0.652344,
2015-03-08, 08:33:04,VALID,921.12,VALID,0,VALID,97.7246,VALID,161.591,VALID,18.494,VALID,117,VALID,1.51719,
2015-03-08, 08:34:04,VALID,921.11,VALID,0,VALID,97.7627,VALID,169.112,VALID,18.5344,VALID,147,VALID,1.28437,
2015-03-08, 08:35:04,VALID,921.093,VALID,0,VALID,97.7779,VALID,178.675,VALID,18.572,VALID,132,VALID,0.930859,
2015-03-08, 08:36:04,VALID,921.085,VALID,0,VALID,97.8008,VALID,185.766,VALID,18.5734,VALID,140,VALID,1.43398,
2015-03-08, 08:37:04,VALID,921.099,VALID,0,VALID,97.7932,VALID,191.138,VALID,18.5734,VALID,117,VALID,1.78437,
2015-03-08, 08:38:04,VALID,921.058,VALID,0,VALID,97.7856,VALID,195.221,VALID,18.5914,VALID,94,VALID,1.02695,
2015-03-08, 08:39:04,VALID,921.052,VALID,0,VALID,97.8008,VALID,198.229,VALID,18.7474,VALID,95,VALID,1.08984,
2015-03-08, 08:40:04,VALID,921.043,VALID,0,VALID,97.8313,VALID,200.485,VALID,18.8853,VALID,82,VALID,0.922656,
2015-03-08, 08:41:04,VALID,921.025,VALID,0,VALID,97.8694,VALID,203.279,VALID,18.8268,VALID,84,VALID,1.30469,
2015-03-08, 08:42:04,VALID,921.008,VALID,0,VALID,97.8465,VALID,206.18,VALID,18.8853,VALID,79,VALID,1.23711,
2015-03-08, 08:43:04,VALID,920.968,VALID,0,VALID,97.8008,VALID,209.725,VALID,18.9438,VALID,71,VALID,1.20859,
2015-03-08, 08:44:04,VALID,920.941,VALID,0,VALID,97.8084,VALID,214.453,VALID,19.0203,VALID,97,VALID,1.31406,
2015-03-08, 08:45:04,VALID,920.888,VALID,0,VALID,97.7932,VALID,219.18,VALID,19.0788,VALID,100,VALID,1.53516,
2015-03-08, 08:46:04,VALID,920.847,VALID,0,VALID,97.7398,VALID,223.692,VALID,19.1388,VALID,97,VALID,0.898438,
2015-03-08, 08:47:04,VALID,920.856,VALID,0,VALID,97.6788,VALID,227.56,VALID,19.2153,VALID,100,VALID,1.36758,
2015-03-08, 08:48:04,VALID,920.839,VALID,0,VALID,97.6331,VALID,231.213,VALID,19.3143,VALID,90,VALID,1.13672,
2015-03-08, 08:49:04,VALID,920.865,VALID,0,VALID,97.6102,VALID,233.792,VALID,19.3908,VALID,108,VALID,0.805469,
2015-03-08, 08:50:04,VALID,920.841,VALID,0,VALID,97.5035,VALID,236.908,VALID,19.4298,VALID,110,VALID,1.01211,
2015-03-08, 08:51:04,VALID,920.859,VALID,0,VALID,97.351,VALID,242.172,VALID,19.4298,VALID,109,VALID,1.18867,
2015-03-08, 08:52:04,VALID,920.884,VALID,0,VALID,97.1757,VALID,247.437,VALID,19.5093,VALID,84,VALID,0.219531,
2015-03-08, 08:53:04,VALID,920.895,VALID,0,VALID,97.0994,VALID,253.024,VALID,19.5858,VALID,113,VALID,0,
2015-03-08, 08:54:04,VALID,920.901,VALID,0,VALID,97.0308,VALID,257.751,VALID,19.6833,VALID,93,VALID,0,
2015-03-08, 08:55:04,VALID,920.885,VALID,0,VALID,96.9698,VALID,263.661,VALID,19.7418,VALID,177,VALID,0,
2015-03-08, 08:56:04,VALID,920.866,VALID,0,VALID,96.7488,VALID,272.256,VALID,19.7418,VALID,176,VALID,0,
2015-03-08, 08:57:04,VALID,920.86,VALID,0,VALID,96.2685,VALID,283.86,VALID,19.6443,VALID,129,VALID,1.31523,
2015-03-08, 08:58:04,VALID,920.852,VALID,0,VALID,95.5976,VALID,302.769,VALID,19.7223,VALID,140,VALID,1.40469,
2015-03-08, 08:59:04,VALID,920.925,VALID,0,VALID,94.8124,VALID,338.869,VALID,19.7793,VALID,154,VALID,0.821484,
2015-03-08, 09:00:04,VALID,920.893,VALID,0,VALID,94.2864,VALID,377.118,VALID,19.8588,VALID,79,VALID,1.48906,
2015-03-08, 09:01:04,VALID,920.874,VALID,0,VALID,93.3259,VALID,314.803,VALID,19.8963,VALID,85,VALID,0.48125,
2015-03-08, 09:02:04,VALID,920.873,VALID,0,VALID,94.0501,VALID,300.405,VALID,20.0538,VALID,60,VALID,1.26289,
2015-03-08, 09:03:04,VALID,920.855,VALID,0,VALID,90.429,VALID,296.538,VALID,20.0133,VALID,76,VALID,1.26328,
2015-03-08, 09:04:04,VALID,920.88,VALID,0,VALID,89.6971,VALID,291.273,VALID,20.0718,VALID,81,VALID,1.54492,
2015-03-08, 09:05:04,VALID,920.908,VALID,0,VALID,89.9029,VALID,290.091,VALID,20.1318,VALID,73,VALID,1.4082,
2015-03-08, 09:06:04,VALID,920.91,VALID,0,VALID,90.2765,VALID,293.852,VALID,20.1888,VALID,53,VALID,1.40469,
2015-03-08, 09:07:04,VALID,920.896,VALID,0,VALID,90.3299,VALID,297.827,VALID,20.2879,VALID,125,VALID,1.37969,
2015-03-08, 09:08:04,VALID,920.882,VALID,0,VALID,90.6119,VALID,300.728,VALID,20.3854,VALID,79,VALID,1.18633,
2015-03-08, 09:09:04,VALID,920.929,VALID,0,VALID,89.0796,VALID,303.521,VALID,20.3643,VALID,83,VALID,0.0417969,
2015-03-08, 09:10:04,VALID,920.907,VALID,0,VALID,89.6133,VALID,305.24,VALID,20.4813,VALID,56,VALID,0.753125,
2015-03-08, 09:11:04,VALID,920.904,VALID,0,VALID,90.5891,VALID,305.563,VALID,20.639,VALID,39,VALID,0,
2015-03-08, 09:12:04,VALID,920.89,VALID,0,VALID,86.8993,VALID,304.918,VALID,20.639,VALID,66,VALID,0,
2015-03-08, 09:13:04,VALID,920.877,VALID,0,VALID,86.7087,VALID,298.901,VALID,20.6959,VALID,75,VALID,0.242969,
2015-03-08, 09:14:04,VALID,920.88,VALID,0,VALID,86.3504,VALID,297.612,VALID,20.6959,VALID,77,VALID,0,
2015-03-08, 09:15:04,VALID,920.872,VALID,0,VALID,86.7316,VALID,292.24,VALID,20.7154,VALID,61,VALID,0.604688,
2015-03-08, 09:16:04,VALID,920.908,VALID,0,VALID,86.7392,VALID,281.711,VALID,20.7349,VALID,56,VALID,0.217969,
2015-03-08, 09:17:04,VALID,920.874,VALID,0,VALID,85.489,VALID,277.95,VALID,20.7154,VALID,49,VALID,0.261328,
2015-03-08, 09:18:04,VALID,920.903,VALID,0,VALID,87.4177,VALID,276.124,VALID,20.7739,VALID,74,VALID,0,
2015-03-08, 09:19:04,VALID,920.889,VALID,0,VALID,85.954,VALID,275.909,VALID,20.7739,VALID,88,VALID,0.216797,
2015-03-08, 09:20:04,VALID,920.868,VALID,0,VALID,85.1078,VALID,277.843,VALID,20.7934,VALID,96,VALID,0,
2015-03-08, 09:21:04,VALID,920.871,VALID,0,VALID,84.5589,VALID,282.463,VALID,20.8535,VALID,91,VALID,0,
2015-03-08, 09:22:04,VALID,920.856,VALID,0,VALID,79.6037,VALID,288.265,VALID,20.795,VALID,140,VALID,0,
2015-03-08, 09:23:04,VALID,920.849,VALID,0,VALID,81.7383,VALID,292.455,VALID,20.795,VALID,139,VALID,0,
2015-03-08, 09:24:04,VALID,920.874,VALID,0,VALID,83.0952,VALID,298.149,VALID,20.8324,VALID,119,VALID,0,
2015-03-08, 09:25:04,VALID,920.79,VALID,0,VALID,79.3674,VALID,304.918,VALID,20.8714,VALID,116,VALID,0,
2015-03-08, 09:26:04,VALID,920.867,VALID,0,VALID,79.5199,VALID,309.86,VALID,20.9105,VALID,86,VALID,0,
2015-03-08, 09:27:04,VALID,920.855,VALID,0,VALID,80.0611,VALID,304.703,VALID,20.969,VALID,66,VALID,0,
2015-03-08, 09:28:04,VALID,920.829,VALID,0,VALID,83.2782,VALID,301.587,VALID,21.0665,VALID,56,VALID,0,
2015-03-08, 09:29:04,VALID,920.836,VALID,0,VALID,79.5961,VALID,301.91,VALID,21.1055,VALID,86,VALID,0,
2015-03-08, 09:30:04,VALID,920.812,VALID,0,VALID,78.2696,VALID,303.629,VALID,21.1445,VALID,58,VALID,0,
2015-03-08, 09:31:04,VALID,920.81,VALID,0,VALID,81.3495,VALID,307.174,VALID,21.2421,VALID,48,VALID,0,
2015-03-08, 09:32:04,VALID,920.799,VALID,0,VALID,80.8921,VALID,312.869,VALID,21.3591,VALID,49,VALID,0,
2015-03-08, 09:33:04,VALID,920.778,VALID,0,VALID,77.4768,VALID,320.604,VALID,21.3185,VALID,113,VALID,0.0347656,
2015-03-08, 09:34:04,VALID,920.767,VALID,0,VALID,79.2454,VALID,326.621,VALID,21.3786,VALID,106,VALID,0,
2015-03-08, 09:35:04,VALID,920.728,VALID,0,VALID,78.14,VALID,332.208,VALID,21.3786,VALID,100,VALID,0,
2015-03-08, 09:36:04,VALID,920.729,VALID,0,VALID,75.9673,VALID,338.547,VALID,21.3006,VALID,102,VALID,0,
2015-03-08, 09:37:04,VALID,920.723,VALID,0,VALID,78.018,VALID,344.886,VALID,21.3006,VALID,95,VALID,0,
2015-03-08, 09:38:04,VALID,920.713,VALID,0,VALID,80.7091,VALID,352.407,VALID,21.3575,VALID,95,VALID,0,
2015-03-08, 09:39:04,VALID,920.707,VALID,0,VALID,82.9199,VALID,361.647,VALID,21.4762,VALID,32,VALID,0,
2015-03-08, 09:40:04,VALID,920.685,VALID,0,VALID,82.188,VALID,375.937,VALID,21.6128,VALID,43,VALID,1.5668,
2015-03-08, 09:41:04,VALID,920.645,VALID,0,VALID,80.3203,VALID,395.276,VALID,21.5916,VALID,59,VALID,0.629297,
2015-03-08, 09:42:04,VALID,920.638,VALID,0,VALID,83.1105,VALID,404.409,VALID,21.6111,VALID,33,VALID,0.00507812,
2015-03-08, 09:43:04,VALID,920.658,VALID,0,VALID,78.8414,VALID,413.434,VALID,21.6891,VALID,42,VALID,1.23359,
2015-03-08, 09:44:04,VALID,920.633,VALID,0,VALID,78.1095,VALID,427.723,VALID,21.7087,VALID,36,VALID,0.220703,
2015-03-08, 09:45:04,VALID,920.675,VALID,0,VALID,79.3598,VALID,444.054,VALID,21.7867,VALID,12,VALID,0.0105469,
2015-03-08, 09:46:04,VALID,920.615,VALID,0,VALID,81.4714,VALID,467.369,VALID,21.9038,VALID,10,VALID,0,
2015-03-08, 09:47:04,VALID,920.605,VALID,0,VALID,79.1006,VALID,489.072,VALID,22.0598,VALID,40,VALID,0,
2015-03-08, 09:48:04,VALID,920.603,VALID,0,VALID,76.2265,VALID,515.718,VALID,22.0972,VALID,79,VALID,0,
2015-03-08, 09:49:04,VALID,920.599,VALID,0,VALID,77.9799,VALID,539.892,VALID,22.2354,VALID,85,VALID,0,
2015-03-08, 09:50:04,VALID,920.577,VALID,0,VALID,74.153,VALID,555.041,VALID,22.2745,VALID,99,VALID,0,
2015-03-08, 09:51:04,VALID,920.543,VALID,0,VALID,75.266,VALID,522.594,VALID,22.3135,VALID,98,VALID,0,
2015-03-08, 09:52:04,VALID,920.561,VALID,0,VALID,73.2915,VALID,600.381,VALID,22.4094,VALID,123,VALID,0,
2015-03-08, 09:53:04,VALID,920.517,VALID,0,VALID,74.4655,VALID,530.007,VALID,22.5264,VALID,123,VALID,0,
2015-03-08, 09:54:04,VALID,920.507,VALID,0,VALID,73.7261,VALID,529.255,VALID,22.6452,VALID,123,VALID,0,
2015-03-08, 09:55:04,VALID,920.508,VALID,0,VALID,73.6727,VALID,437.5,VALID,22.6062,VALID,123,VALID,0,
2015-03-08, 09:56:04,VALID,920.488,VALID,0,VALID,74.0767,VALID,541.503,VALID,22.6665,VALID,124,VALID,0,
2015-03-08, 09:57:04,VALID,920.491,VALID,0,VALID,75.3041,VALID,552.677,VALID,22.7818,VALID,123,VALID,0,
2015-03-08, 09:58:04,VALID,920.479,VALID,0,VALID,75.1364,VALID,729.096,VALID,22.9575,VALID,122,VALID,0,
2015-03-08, 09:59:04,VALID,920.474,VALID,0,VALID,75.7158,VALID,549.239,VALID,23.0746,VALID,80,VALID,0,
2015-03-08, 10:00:04,VALID,920.463,VALID,0,VALID,73.787,VALID,497.667,VALID,23.1899,VALID,62,VALID,0,
2015-03-08, 10:01:04,VALID,920.487,VALID,0,VALID,71.8812,VALID,562.347,VALID,23.3851,VALID,78,VALID,0,
2015-03-08, 10:02:04,VALID,920.447,VALID,0,VALID,71.6144,VALID,568.686,VALID,23.504,VALID,55,VALID,0,
2015-03-08, 10:03:04,VALID,920.434,VALID,0,VALID,63.282,VALID,539.14,VALID,23.543,VALID,55,VALID,0,
2015-03-08, 10:04:04,VALID,920.429,VALID,0,VALID,66.1712,VALID,629.175,VALID,23.4845,VALID,55,VALID,0,
2015-03-08, 10:05:04,VALID,920.405,VALID,0,VALID,67.3071,VALID,680.64,VALID,23.543,VALID,102,VALID,0,
2015-03-08, 10:06:04,VALID,920.406,VALID,0,VALID,66.804,VALID,678.276,VALID,23.6388,VALID,164,VALID,0,
2015-03-08, 10:07:04,VALID,920.419,VALID,0,VALID,68.2296,VALID,684.722,VALID,23.8749,VALID,156,VALID,0,
2015-03-08, 10:08:04,VALID,920.363,VALID,0,VALID,66.7201,VALID,677.416,VALID,24.0488,VALID,142,VALID,0,
2015-03-08, 10:09:04,VALID,920.332,VALID,0,VALID,66.5143,VALID,663.019,VALID,23.9121,VALID,71,VALID,2.03789,
2015-03-08, 10:10:04,VALID,920.345,VALID,0,VALID,67.4291,VALID,652.598,VALID,23.6974,VALID,56,VALID,1.775,
2015-03-08, 10:11:04,VALID,920.316,VALID,0,VALID,70.6386,VALID,642.068,VALID,23.5608,VALID,54,VALID,0.846484,
2015-03-08, 10:12:04,VALID,920.348,VALID,0,VALID,66.9565,VALID,626.704,VALID,23.5199,VALID,25,VALID,0.0121094,
2015-03-08, 10:13:04,VALID,920.36,VALID,0,VALID,68.2753,VALID,627.779,VALID,23.5004,VALID,57,VALID,0,
2015-03-08, 10:14:04,VALID,920.353,VALID,0,VALID,68.7785,VALID,605.323,VALID,23.5785,VALID,57,VALID,0,
2015-03-08, 10:15:04,VALID,920.342,VALID,0,VALID,69.0377,VALID,578.893,VALID,23.7346,VALID,57,VALID,0,
2015-03-08, 10:16:04,VALID,920.335,VALID,0,VALID,68.2067,VALID,586.844,VALID,23.8554,VALID,38,VALID,0,
2015-03-08, 10:17:04,VALID,920.316,VALID,0,VALID,66.9107,VALID,573.199,VALID,23.9512,VALID,37,VALID,0,
2015-03-08, 10:18:04,VALID,920.304,VALID,0,VALID,65.8892,VALID,575.67,VALID,24.0878,VALID,27,VALID,1.66484,
2015-03-08, 10:19:04,VALID,920.286,VALID,0,VALID,68.2296,VALID,584.91,VALID,23.9121,VALID,37,VALID,1.61914,
2015-03-08, 10:20:04,VALID,920.28,VALID,0,VALID,68.5116,VALID,594.472,VALID,23.8536,VALID,39,VALID,0.835938,
2015-03-08, 10:21:04,VALID,920.279,VALID,0,VALID,66.1712,VALID,583.728,VALID,23.9121,VALID,55,VALID,0,
2015-03-08, 10:22:04,VALID,920.26,VALID,0,VALID,65.2869,VALID,557.942,VALID,24.0683,VALID,52,VALID,0,
2015-03-08, 10:23:04,VALID,920.283,VALID,0,VALID,66.3237,VALID,554.396,VALID,24.244,VALID,52,VALID,0,
2015-03-08, 10:24:04,VALID,920.261,VALID,0,VALID,64.3569,VALID,377.226,VALID,24.4783,VALID,52,VALID,0,
2015-03-08, 10:25:04,VALID,920.284,VALID,0,VALID,64.8067,VALID,369.812,VALID,24.6345,VALID,53,VALID,0,
2015-03-08, 10:26:04,VALID,920.263,VALID,0,VALID,64.7076,VALID,341.341,VALID,24.7302,VALID,28,VALID,0,
2015-03-08, 10:27:04,VALID,920.273,VALID,0,VALID,63.2972,VALID,350.688,VALID,24.6326,VALID,34,VALID,0,
2015-03-08, 10:28:04,VALID,920.266,VALID,0,VALID,65.3784,VALID,399.681,VALID,24.4569,VALID,17,VALID,0,
2015-03-08, 10:29:04,VALID,920.23,VALID,0,VALID,65.0506,VALID,475.642,VALID,24.3221,VALID,28,VALID,0.708203,
2015-03-08, 10:30:04,VALID,920.261,VALID,0,VALID,64.8753,VALID,519.585,VALID,24.3806,VALID,2,VALID,1.10117,
2015-03-08, 10:31:04,VALID,920.27,VALID,0,VALID,63.8918,VALID,526.784,VALID,24.4197,VALID,20,VALID,0.275391,
2015-03-08, 10:32:04,VALID,920.282,VALID,0,VALID,59.4398,VALID,571.479,VALID,24.4783,VALID,14,VALID,0,
2015-03-08, 10:33:04,VALID,920.262,VALID,0,VALID,59.5694,VALID,546.768,VALID,24.4978,INVALID,360,VALID,0,
2015-03-08, 10:34:04,VALID,920.253,VALID,0,VALID,62.1385,VALID,558.587,VALID,24.4783,INVALID,360,VALID,0,
2015-03-08, 10:35:04,VALID,920.253,VALID,0,VALID,65.3098,VALID,544.727,VALID,24.4783,VALID,5,VALID,0,
2015-03-08, 10:36:04,VALID,920.28,VALID,0,VALID,65.7596,VALID,496.486,VALID,24.6149,VALID,6,VALID,0,
2015-03-08, 10:37:04,VALID,920.273,VALID,0,VALID,61.8488,VALID,534.412,VALID,24.7907,VALID,17,VALID,0,
2015-03-08, 10:38:04,VALID,920.262,VALID,0,VALID,59.7752,VALID,382.598,VALID,24.9078,VALID,5,VALID,0,
2015-03-08, 10:39:04,VALID,920.24,VALID,0,VALID,60.0878,VALID,447.922,VALID,25.0231,VALID,13,VALID,0,
2015-03-08, 10:40:04,VALID,920.226,VALID,0,VALID,58.0599,VALID,370.779,VALID,25.1012,VALID,34,VALID,0,
2015-03-08, 10:41:04,VALID,920.25,VALID,0,VALID,57.5263,VALID,454.691,VALID,25.0836,VALID,10,VALID,1.21797,
2015-03-08, 10:42:04,VALID,920.25,VALID,0,VALID,58.8909,VALID,428.583,VALID,24.984,VALID,32,VALID,0.00585938,
2015-03-08, 10:43:04,VALID,920.236,VALID,0,VALID,58.8985,VALID,535.487,VALID,25.0231,VALID,16,VALID,0,
2015-03-08, 10:44:04,VALID,920.249,VALID,0,VALID,57.7702,VALID,423.855,VALID,25.1031,VALID,19,VALID,0,
2015-03-08, 10:45:04,VALID,920.231,VALID,0,VALID,58.4564,VALID,434.062,VALID,25.1207,VALID,22,VALID,0,
2015-03-08, 10:46:04,VALID,920.225,VALID,0,VALID,58.8223,VALID,610.481,VALID,25.1598,VALID,6,VALID,0,
2015-03-08, 10:47:04,VALID,920.194,VALID,0,VALID,58.0523,VALID,596.621,VALID,25.0621,VALID,5,VALID,0,
2015-03-08, 10:48:04,VALID,920.196,VALID,0,VALID,58.6469,VALID,473.923,VALID,24.7107,VALID,15,VALID,0,
2015-03-08, 10:49:04,VALID,920.181,VALID,0,VALID,60.1335,VALID,452.327,VALID,24.4959,VALID,15,VALID,0,
2015-03-08, 10:50:04,VALID,920.175,VALID,0,VALID,62.5882,VALID,422.566,VALID,24.4569,VALID,18,VALID,0,
2015-03-08, 10:51:04,VALID,920.202,VALID,0,VALID,63.9452,VALID,436.641,VALID,24.5954,VALID,360,VALID,0,
2015-03-08, 10:52:04,VALID,920.17,VALID,0,VALID,63.4421,VALID,558.909,VALID,24.6326,VALID,15,VALID,0,
2015-03-08, 10:53:04,VALID,920.203,VALID,0,VALID,61.3609,VALID,539.355,VALID,24.6716,VALID,355,VALID,0,
2015-03-08, 10:54:04,VALID,920.22,VALID,0,VALID,59.4093,VALID,593.397,VALID,24.574,VALID,302,VALID,0,
2015-03-08, 10:55:04,VALID,920.201,VALID,0,VALID,59.5465,VALID,624.126,VALID,24.5545,VALID,303,VALID,0,
2015-03-08, 10:56:04,VALID,920.194,VALID,0,VALID,59.3178,VALID,617.249,VALID,24.3983,VALID,302,VALID,0,
2015-03-08, 10:57:04,VALID,920.208,VALID,0,VALID,63.4649,VALID,725.765,VALID,24.4569,VALID,308,VALID,0,
2015-03-08, 10:58:04,VALID,920.213,VALID,0,VALID,58.9366,VALID,752.625,VALID,24.6131,VALID,302,VALID,0,
2015-03-08, 10:59:04,VALID,920.178,VALID,0,VALID,56.9774,VALID,752.733,VALID,24.6326,VALID,302,VALID,0,
2015-03-08, 11:00:04,VALID,920.189,VALID,0,VALID,60.3546,VALID,737.154,VALID,24.7283,VALID,317,VALID,0,
2015-03-08, 11:01:04,VALID,920.169,VALID,0,VALID,58.7537,VALID,770.031,VALID,25.0621,VALID,350,VALID,0,
2015-03-08, 11:02:04,VALID,920.182,VALID,0,VALID,57.6025,VALID,762.295,VALID,25.3922,VALID,50,VALID,0,
2015-03-08, 11:03:04,VALID,920.135,VALID,0,VALID,56.6953,VALID,773.469,VALID,25.6089,VALID,47,VALID,0,
2015-03-08, 11:04:04,VALID,920.155,VALID,0,VALID,56.7792,VALID,660.763,VALID,25.7241,VALID,20,VALID,0,
2015-03-08, 11:05:04,VALID,920.15,VALID,0,VALID,57.8541,VALID,692.351,VALID,25.7241,VALID,20,VALID,0,
2015-03-08, 11:06:04,VALID,920.151,VALID,0,VALID,55.7043,VALID,665.705,VALID,25.687,VALID,19,VALID,0.0121094,
2015-03-08, 11:07:04,VALID,920.121,VALID,0,VALID,57.1985,VALID,771.965,VALID,25.5308,VALID,19,VALID,0,
2015-03-08, 11:08:04,VALID,920.119,VALID,0,VALID,56.3065,VALID,785.18,VALID,25.4331,VALID,299,VALID,0.00390625,
2015-03-08, 11:09:04,VALID,920.092,VALID,0,VALID,57.4806,VALID,777.766,VALID,25.355,VALID,299,VALID,0,
2015-03-08, 11:10:04,VALID,920.088,VALID,0,VALID,55.4375,VALID,752.303,VALID,25.5698,VALID,18,VALID,0.142188,
2015-03-08, 11:11:04,VALID,920.071,VALID,0,VALID,56.2151,VALID,631.969,VALID,25.6284,VALID,58,VALID,2.14492,
2015-03-08, 11:12:04,VALID,920.059,VALID,0,VALID,57.9685,VALID,695.574,VALID,25.2965,VALID,60,VALID,0.654297,
2015-03-08, 11:13:04,VALID,920.04,VALID,0,VALID,62.0851,VALID,602.423,VALID,25.1012,VALID,63,VALID,0.212891,
2015-03-08, 11:14:04,VALID,920.032,VALID,0,VALID,59.516,VALID,641.209,VALID,24.9255,VALID,64,VALID,0.0558594,
2015-03-08, 11:15:04,VALID,920.044,VALID,0,VALID,60.5071,VALID,371.317,VALID,24.9059,VALID,152,VALID,0.141406,
2015-03-08, 11:16:04,VALID,920.07,VALID,0,VALID,60.7358,VALID,677.416,VALID,24.984,VALID,286,VALID,0.174219,
2015-03-08, 11:17:04,VALID,920.044,VALID,0,VALID,58.2963,VALID,717.385,VALID,25.0231,VALID,303,VALID,1.51992,
2015-03-08, 11:18:04,VALID,920.077,VALID,0,VALID,59.2568,VALID,647.226,VALID,24.8864,VALID,278,VALID,0,
2015-03-08, 11:19:04,VALID,920.034,VALID,0,VALID,58.8299,VALID,687.946,VALID,24.8474,VALID,278,VALID,0.119922,
2015-03-08, 11:20:04,VALID,920.019,VALID,0,VALID,59.3178,VALID,699.334,VALID,24.9255,VALID,278,VALID,0,
2015-03-08, 11:21:04,VALID,920.021,VALID,0,VALID,59.2034,VALID,665.92,VALID,25.1598,VALID,278,VALID,0,
2015-03-08, 11:22:04,VALID,919.984,VALID,0,VALID,57.9685,VALID,673.119,VALID,25.3141,VALID,79,VALID,1.79844,
2015-03-08, 11:23:04,VALID,919.962,VALID,0,VALID,59.3635,VALID,651.738,VALID,25.1579,VALID,70,VALID,1.40937,
2015-03-08, 11:24:04,VALID,919.969,VALID,0,VALID,59.8133,VALID,636.052,VALID,25.1774,VALID,30,VALID,0.317578,
2015-03-08, 11:25:04,VALID,919.991,VALID,0,VALID,57.4424,VALID,673.226,VALID,25.1793,VALID,36,VALID,0.0195313,
2015-03-08, 11:26:04,VALID,919.985,VALID,0,VALID,58.4868,VALID,729.74,VALID,25.1988,VALID,66,VALID,0.0214844,
2015-03-08, 11:27:04,VALID,919.967,VALID,0,VALID,56.6725,VALID,748.113,VALID,25.1188,VALID,66,VALID,0,
2015-03-08, 11:28:04,VALID,919.961,VALID,0,VALID,59.0891,VALID,761.65,VALID,25.0602,VALID,75,VALID,0.00195313,
2015-03-08, 11:29:04,VALID,919.963,VALID,0,VALID,60.812,VALID,749.08,VALID,25.2183,VALID,87,VALID,0.0625,
2015-03-08, 11:30:04,VALID,919.946,VALID,0,VALID,58.746,VALID,748.865,VALID,25.5698,VALID,52,VALID,0.403516,
2015-03-08, 11:31:04,VALID,919.924,VALID,0,VALID,57.7855,VALID,754.989,VALID,25.8237,VALID,52,VALID,0.789844,
2015-03-08, 11:32:04,VALID,919.896,VALID,0,VALID,56.1083,VALID,747.038,VALID,25.9585,VALID,38,VALID,0,